This demonstration page uses our WeatherBlox Daily Observations layout. Learn more.

Left ArrowRight Arrow

44.8408, -93.29828

Hourly Observations for June 13, 2015

Temp ( °F °C ) Dew Point ( °F °C ) Humidity (%) Winds ( mph kmh ) Pressure ( in mb ) Visibility ( mi km ) Precip ( " mm )
12:53 am 00:53 Cloudy 67 19.4 54 12.2 63 63 SE 8 13 29.90 1013 10 16 0.00 0.00
1:53 am 01:53 Cloudy 67 19.4 55 12.8 66 66 ESE 10 17 29.89 1012 10 16 0.00 0.00
2:53 am 02:53 Cloudy 65 18.3 57 13.9 76 76 SE 7 11 29.89 1012 10 16 0.00 0.00
3:53 am 03:53 Cloudy 65 18.3 57 13.9 76 76 ESE 6 9 29.87 1012 10 16 0.00 0.00
4:53 am 04:53 Cloudy 64 17.8 58 14.4 81 81 E 7 11 29.88 1012 10 16 0.00 0.00
5:53 am 05:53 Cloudy 65 18.3 58 14.4 78 78 SE 8 13 29.89 1012 10 16 0.00 0.00
6:53 am 06:53 Cloudy 64 17.8 57 13.9 78 78 ESE 8 13 29.89 1012 10 16 0.00 0.00
7:18 am 07:18 Cloudy 63 17 57 14 83 83 ESE 9 15 29.91 1013 10 16 0.00 0.00
7:53 am 07:53 Cloudy 63 17.2 58 14.4 84 84 SE 7 11 29.91 1013 10 16 0.00 0.00
8:05 am 08:05 Cloudy with Light Rain 62 16.7 58 14.4 86 86 E 8 13 29.91 1013 2 3 0.00 0.03
8:13 am 08:13 Cloudy with Light Rain 61 16.1 59 15 93 93 E 8 13 29.94 1014 2 2 0.00 0.03
8:20 am 08:20 Cloudy with Light Rain 61 16 59 15 94 94 E 7 11 29.91 1013 1 2 0.00 0.00
8:24 am 08:24 Cloudy with Light Rain 61 16 59 15 94 94 E 9 15 29.91 1013 1 2 0.00 0.00
8:31 am 08:31 Cloudy with Light Rain 60 15.6 59 15 96 96 ENE 8 13 29.91 1013 1 2 0.02 0.51
8:53 am 08:53 Cloudy with Light Rain 60 15.6 59 15 96 96 ENE 8 13 29.91 1013 1 2 0.05 1.27
9:03 am 09:03 Cloudy with Light Rain 61 16 59 15 94 94 E 9 15 29.91 1013 2 3 0.00 0.00
9:22 am 09:22 Cloudy with Mist and Fog 61 16 57 14 88 88 ENE 9 15 29.91 1013 2 2 0.00 0.00
9:53 am 09:53 Cloudy with Light Rain 60 15.6 59 15 96 96 ENE 7 11 29.91 1013 2 3 0.02 0.51
10:07 am 10:07 Cloudy with Light Rain 60 15.6 59 15 96 96 ENE 8 13 29.91 1013 3 5 0.00 0.03
10:53 am 10:53 Cloudy with Light Rain 60 15.6 58 14.4 93 93 E 12 19 29.90 1013 9 14 0.00 0.03
11:53 am 11:53 Cloudy 62 16.7 59 15 90 90 E 12 19 29.89 1012 10 16 0.00 0.03
12:53 pm 12:53 Cloudy 63 17.2 59 15 87 87 SE 8 13 29.89 1012 10 16 0.00 0.00
1:53 pm 13:53 Cloudy 65 18.3 60 15.6 84 84 VRB 5 7 29.89 1012 10 16 0.00 0.00
2:08 pm 14:08 Cloudy 65 18.3 60 15.6 84 84 ESE 5 7 29.91 1013 10 16 0.00 0.00
2:53 pm 14:53 Cloudy 66 18.9 60 15.6 81 81 ENE 6 9 29.89 1012 10 16 0.00 0.00
3:28 pm 15:28 Cloudy 66 19 61 16 83 83 ENE 5 7 29.88 1012 10 16 0.00 0.00
3:53 pm 15:53 Cloudy 68 20 61 16.1 78 78 ENE 3 6 29.88 1012 10 16 0.00 0.00
4:45 pm 16:45 Mostly Cloudy 69 20.6 60 15.6 73 73 VRB 3 6 29.88 1012 10 16 0.00 0.00
4:53 pm 16:53 Mostly Cloudy 70 21.1 61 16.1 73 73 VRB 5 7 29.86 1011 10 16 0.00 0.00
5:15 pm 17:15 Mostly Cloudy 70 21.1 61 16.1 73 73 VRB 6 9 29.88 1012 10 16 0.00 0.00
5:53 pm 17:53 Cloudy 69 20.6 61 16.1 76 76 ENE 8 13 29.85 1011 10 16 0.00 0.00
6:53 pm 18:53 Cloudy 68 20 61 16.1 78 78 ENE 7 11 29.85 1011 10 16 0.00 0.00
7:53 pm 19:53 Cloudy 68 20 61 16.1 78 78 ENE 7 11 29.86 1011 10 16 0.00 0.00
8:11 pm 20:11 Cloudy 68 20 61 16.1 78 78 ENE 8 13 29.88 1012 10 16 0.00 0.00
8:53 pm 20:53 Cloudy 68 20 61 16.1 78 78 ENE 7 11 29.87 1012 10 16 0.00 0.00
9:53 pm 21:53 Cloudy 68 20 61 16.1 78 78 ENE 6 9 29.90 1013 10 16 0.00 0.00
10:53 pm 22:53 Cloudy 67 19.4 61 16.1 81 81 ENE 7 11 29.90 1013 10 16 0.00 0.00
11:31 pm 23:31 Cloudy 67 19.4 61 16.1 81 81 ENE 6 9 29.91 1013 10 16 0.00 0.00
11:53 pm 23:53 Cloudy 66 18.9 61 16.1 84 84 ENE 7 11 29.90 1013 10 16 0.00 0.00

Powered by AerisWeather